[[{"header":{"parameterUnit":"m.s-1","parameterCategory":1,"la1":30.2991,"la2":30.254,"lo1":-89.0895,"lo2":-89.0444,"dy":0.0017,"dx":0.0017,"nx":28,"ny":28,"refTime":"2025-07-04T03:00:00:Z","depth":0,"parameterNumber":2,"parameterNumberName":"U-component_of_WINDS"},"data":[0,0,0,0,0,0,0,0,0,0,0,0,0,0,0,0,0,0,0,0,0,0,0,0,0,0,0,0,0,0,0,0,0,0,0,0,0,0,0,0,0,0,0,0,0,0,0,0,0,0,0,0,0,0,0,0,0,0,-1.9127,-1.9127,0,-1.9075,-1.9075,-1.9074,-1.8948,-1.8945,-1.8942,-1.894,-1.8889,-1.8891,-1.8892,0,0,0,0,0,0,0,0,0,0,0,0,0,-1.9119,-1.912,-1.9127,-1.9127,-1.9126,-1.9075,-1.9075,-1.9074,-1.8948,-1.8945,-1.8942,-1.8938,-1.8889,-1.889,-1.8892,0,0,0,0,0,0,0,0,0,0,0,0,0,-1.9101,-1.912,-1.9127,-1.9057,-1.905,-1.9075,-1.9074,-1.9074,-1.8949,-1.8945,-1.8941,-1.8937,-1.8889,-1.889,-1.8892,-1.8982,0,0,-1.8897,-1.8898,0,0,0,0,0,0,0,0,-1.9102,-1.9101,-1.9068,-1.9062,-1.9054,-1.9014,-1.9053,-1.9043,-1.895,-1.8987,-1.894,-1.8935,-1.8934,-1.8932,-1.8931,-1.898,-1.8978,-1.8897,-1.8898,-1.8899,-1.89,0,0,0,0,0,0,0,-1.9103,-1.9103,-1.9107,-1.9068,-1.9059,-1.9028,-1.9021,-1.9051,-1.8984,-1.8984,-1.8974,-1.897,-1.893,-1.893,-1.8929,-1.8977,-1.8897,-1.8899,-1.89,-1.8901,-1.9096,-1.91,0,0,0,0,0,0,-1.9115,-1.9105,-1.9108,-1.9105,-1.9069,-1.9032,-1.9024,-1.9031,-1.8983,-1.8972,-1.8973,-1.8964,-1.8929,-1.8927,-1.8927,-1.9028,-1.8899,-1.8901,-1.8902,-1.9092,-1.9097,-1.9101,0,0,0,0,0,0,-1.9115,-1.9116,-1.911,-1.9102,-1.9099,-1.9036,-1.9045,-1.9032,-1.9032,-1.8975,-1.8963,-1.8985,-1.8925,-1.8924,-1.8969,-1.9025,-1.8901,-1.8903,-1.9087,-1.9093,-1.9099,-1.9233,0,0,0,0,0,0,-1.9115,-1.9117,-1.915,-1.9104,-1.91,-1.9154,-1.9048,-1.9034,-1.9035,-1.9022,-1.8983,-1.8973,-1.8922,-1.8967,-1.8971,-1.9025,-1.8904,-1.9081,-1.909,-1.9097,-1.9224,-1.9243,-1.926,0,0,0,0,0,-1.9115,-1.9191,-1.9153,-1.9154,-1.9141,-1.9157,-1.9155,-1.9094,-1.904,-1.9073,-1.9036,-1.8974,-1.9018,-1.8973,-1.8976,-1.9031,-1.9078,-1.9087,-1.9096,-1.9216,-1.924,-1.926,0,0,0,0,0,0,-1.9248,-1.9184,-1.9141,-1.9204,-1.9187,-1.9136,-1.9176,-1.9122,-1.9121,-1.9109,-1.9034,-1.9027,-1.9081,-1.906,-1.9011,-1.9115,-1.9038,-1.9048,-1.9127,-1.915,-1.9168,-1.9172,-1.8906,0,0,0,0,0,-1.9284,-1.9302,-1.9246,-1.9307,-1.93,-1.924,-1.9245,-1.9199,-1.9179,-1.9171,-1.9138,-1.9121,-1.9131,-1.9139,-1.9145,-1.922,-1.9209,-1.9259,-1.9278,-1.9293,-1.9303,-1.934,-1.9362,-1.9132,-1.9132,-1.9132,0,0,-1.936,-1.9327,-1.9344,-1.9333,-1.9314,-1.9335,-1.9235,-1.9261,-1.9276,-1.9175,-1.9215,-1.919,-1.9166,-1.9226,-1.9251,-1.9211,-1.9364,-1.9305,-1.9318,-1.9319,-1.9352,-1.9374,-1.9393,-1.9138,-1.9137,-1.9136,0,0,-1.9509,-1.9486,-1.9534,-1.9516,-1.9489,-1.9447,-1.9459,-1.9416,-1.9395,-1.9433,-1.9358,-1.9374,-1.9393,-1.9379,-1.9374,-1.9515,-1.9458,-1.9519,-1.9615,-1.9652,-1.967,-1.9686,-1.9736,-1.9755,-1.9529,-1.953,-1.953,0,-1.9607,-1.9634,-1.9565,-1.9596,-1.9593,-1.9501,-1.9549,-1.9536,-1.9513,-1.9513,-1.9468,-1.9488,-1.9466,-1.952,-1.9555,-1.9554,-1.9565,-1.9524,-1.9673,-1.9688,-1.9702,-1.9749,-1.9768,-1.9537,-1.9536,-1.9535,-1.9535,0,-1.9756,-1.9776,-1.9818,-1.9796,-1.9797,-1.9837,-1.9775,-1.9785,-1.9738,-1.9702,-1.9742,-1.9711,-1.9709,-1.9718,-1.9674,-1.9767,-1.9742,-1.9687,-1.9607,-1.9733,-1.9775,-1.9793,-1.9548,-1.9545,-1.9543,-1.9541,0,0,-1.9988,-1.9926,-1.9942,-1.993,-1.9892,-1.9907,-1.9942,-1.9938,-1.9948,-1.9934,-1.9961,-1.9978,-1.9925,-1.992,-1.9873,-1.9906,-2.0019,-1.9845,-1.9843,-1.9878,-2.0118,-2.0161,-2.0183,-1.998,-1.9983,-1.9986,-2.012,0,-2.0128,-2.0183,-2.0121,-2.019,-2.0207,-2.0119,-2.0149,-2.0129,-2.0096,-2.0106,-2.0069,-2.0082,-2.0012,-2.0008,-2.0036,-1.9999,-2.0066,-1.9988,-2.0005,-2.0007,-2.0014,-2.0205,-2.0251,-2.0379,-2.0136,-2.0139,-2.0141,0,-2.0299,-2.0291,-2.0361,-2.0316,-2.0321,-2.035,-2.034,-2.0351,-2.0326,-2.03,-2.0293,-2.0236,-2.0267,-2.0189,-2.023,-2.0179,-2.0182,-2.0165,-2.0168,-2.0168,-2.0082,-2.021,-2.0418,-2.0438,-2.0167,-2.0165,-2.0163,0,-2.0461,-2.0468,-2.051,-2.0503,-2.0453,-2.0474,-2.0455,-2.0425,-2.0427,-2.0419,-2.0418,-2.0415,-2.0413,-2.0412,-2.0355,-2.0303,-2.0404,-2.0321,-2.0383,-2.0384,-2.0409,-2.0408,-2.0621,-2.041,-2.041,-2.041,-2.0409,0,-2.0624,-2.067,-2.0582,-2.0609,-2.0658,-2.0586,-2.0637,-2.0608,-2.0582,-2.0601,-2.0525,-2.0545,-2.0468,-2.048,-2.0436,-2.0477,-2.0477,-2.0456,-2.0444,-2.0463,-2.0466,-2.0464,-2.0454,-2.0415,-2.0414,-2.0413,-2.0412,0,-2.0814,-2.0757,-2.0797,-2.0745,-2.0733,-2.0772,-2.0727,-2.0749,-2.071,-2.0735,-2.0737,-2.0676,-2.0685,-2.0628,-2.0628,-2.0597,-2.066,-2.0633,-2.0669,-2.066,-2.0725,-2.072,-2.0944,-2.097,-2.0744,-2.0746,-2.0748,0,-2.0922,-2.0955,-2.0906,-2.0912,-2.0896,-2.0908,-2.0908,-2.0838,-2.0842,-2.0815,-2.084,-2.0843,-2.0841,-2.0861,-2.0817,-2.0815,-2.0787,-2.0866,-2.0787,-2.0805,-2.0788,-2.0787,-2.079,-2.0883,-2.0886,-2.0888,-2.089,0,-2.1119,-2.1089,-2.1091,-2.1084,-2.1086,-2.1077,-2.1063,-2.1073,-2.0997,-2.1005,-2.1013,-2.1012,-2.101,-2.1014,-2.1003,-2.0983,-2.0925,-2.0915,-2.0929,-2.095,-2.0969,-2.0959,-2.0714,-2.0911,-2.0909,-2.0907,-2.0906,-2.0905,-2.1271,-2.1296,-2.1265,-2.127,-2.1251,-2.124,-2.1257,-2.1219,-2.1224,-2.1217,-2.1175,-2.1191,-2.1163,-2.1143,-2.1128,-2.1139,-2.1102,-2.1122,-2.1128,-2.1134,-2.1145,-2.0967,-2.1137,-2.1137,-2.1136,-2.1135,-2.1135,0,-2.1464,-2.1439,-2.1444,-2.1426,-2.143,-2.1373,-2.1354,-2.1361,-2.1375,-2.1354,-2.1354,-2.1362,-2.1365,-2.132,-2.1317,-2.1335,-2.1308,-2.1336,-2.1335,-2.1331,-2.1179,-2.1167,-2.1358,-2.1358,-2.1358,-2.1358,-2.1358,-2.1358,-2.1565,-2.1604,-2.157,-2.1598,-2.1572,-2.1586,-2.158,-2.1569,-2.1551,-2.1564,-2.1565,-2.1535,-2.1505,-2.1498,-2.1498,-2.1485,-2.1487,-2.1525,-2.1503,-2.1363,-2.1341,-2.1321,-2.1309,-2.1526,-2.1527,-2.1653,-2.1654,-2.1655]},{"header":{"parameterUnit":"m.s-1","parameterCategory":1,"la1":30.2991,"la2":30.254,"lo1":-89.0895,"lo2":-89.0444,"dy":0.0017,"dx":0.0017,"nx":28,"ny":28,"refTime":"2025-07-04T03:00:00:Z","depth":0,"parameterNumber":3,"parameterNumberName":"V-component_of_WINDS"},"data":[0,0,0,0,0,0,0,0,0,0,0,0,0,0,0,0,0,0,0,0,0,0,0,0,0,0,0,0,0,0,0,0,0,0,0,0,0,0,0,0,0,0,0,0,0,0,0,0,0,0,0,0,0,0,0,0,0,0,-2.4252,-2.4253,0,-2.4336,-2.4337,-2.4338,-2.432,-2.4318,-2.4317,-2.4315,-2.4398,-2.4402,-2.4405,0,0,0,0,0,0,0,0,0,0,0,0,0,-2.4071,-2.4075,-2.4252,-2.4253,-2.4254,-2.4336,-2.4337,-2.4339,-2.432,-2.4318,-2.4316,-2.4314,-2.4397,-2.4401,-2.4406,0,0,0,0,0,0,0,0,0,0,0,0,0,-2.4152,-2.4076,-2.4252,-2.4255,-2.4256,-2.4336,-2.4338,-2.4339,-2.432,-2.4318,-2.4316,-2.4313,-2.4395,-2.4401,-2.4406,-2.4488,0,0,-2.4423,-2.4425,0,0,0,0,0,0,0,0,-2.4148,-2.4159,-2.4253,-2.4255,-2.4256,-2.4315,-2.4304,-2.4389,-2.4321,-2.4296,-2.4315,-2.4312,-2.4372,-2.4379,-2.44,-2.4491,-2.4495,-2.4424,-2.4427,-2.4429,-2.4431,0,0,0,0,0,0,0,-2.4142,-2.4155,-2.4285,-2.4255,-2.4256,-2.4251,-2.426,-2.432,-2.4346,-2.4298,-2.4297,-2.4307,-2.4372,-2.4395,-2.4402,-2.4496,-2.4423,-2.4428,-2.4432,-2.4434,-2.4658,-2.466,0,0,0,0,0,0,-2.4136,-2.415,-2.4283,-2.4288,-2.4195,-2.4256,-2.4266,-2.4299,-2.4345,-2.435,-2.4309,-2.4306,-2.4387,-2.4396,-2.4405,-2.4503,-2.4429,-2.4434,-2.4438,-2.4655,-2.4658,-2.4661,0,0,0,0,0,0,-2.4132,-2.4148,-2.4279,-2.4219,-2.4235,-2.4262,-2.4298,-2.4301,-2.4324,-2.4354,-2.4358,-2.4328,-2.4385,-2.4397,-2.4467,-2.4506,-2.4437,-2.4442,-2.4652,-2.4656,-2.466,-2.47,0,0,0,0,0,0,-2.4127,-2.4146,-2.4178,-2.422,-2.4239,-2.4341,-2.4301,-2.4305,-2.4334,-2.4331,-2.4373,-2.4377,-2.4384,-2.4459,-2.4473,-2.4512,-2.4446,-2.4649,-2.4654,-2.4658,-2.4695,-2.4705,-2.4713,0,0,0,0,0,-2.412,-2.4186,-2.418,-2.4196,-2.4279,-2.4344,-2.4354,-2.4362,-2.4337,-2.4369,-2.4388,-2.4376,-2.4499,-2.4467,-2.4482,-2.4523,-2.4646,-2.4652,-2.4658,-2.4691,-2.4703,-2.4712,0,0,0,0,0,0,-2.4147,-2.4191,-2.4185,-2.4266,-2.4302,-2.434,-2.4381,-2.4374,-2.4416,-2.4411,-2.4418,-2.4428,-2.4499,-2.4518,-2.4481,-2.4604,-2.4569,-2.4578,-2.4589,-2.46,-2.4609,-2.4602,-2.4451,0,0,0,0,0,-2.4162,-2.4212,-2.4247,-2.4315,-2.4333,-2.4354,-2.4382,-2.4386,-2.4422,-2.4436,-2.446,-2.4495,-2.4541,-2.4572,-2.4616,-2.4698,-2.4706,-2.4734,-2.4742,-2.475,-2.4757,-2.4801,-2.4814,-2.468,-2.468,-2.468,0,0,-2.4194,-2.4224,-2.4255,-2.4321,-2.4349,-2.4399,-2.4367,-2.4421,-2.4458,-2.4444,-2.4512,-2.4531,-2.457,-2.4646,-2.4681,-2.4664,-2.4796,-2.4757,-2.4763,-2.4766,-2.4808,-2.4821,-2.4832,-2.4684,-2.4684,-2.4683,0,0,-2.4278,-2.4306,-2.4366,-2.4394,-2.4437,-2.445,-2.4465,-2.4505,-2.4517,-2.4586,-2.4576,-2.462,-2.47,-2.4728,-2.4753,-2.4848,-2.4837,-2.4862,-2.4907,-2.495,-2.4961,-2.497,-2.5003,-2.5015,-2.487,-2.487,-2.487,0,-2.4312,-2.4388,-2.4397,-2.4453,-2.4481,-2.4473,-2.4532,-2.4559,-2.4614,-2.4633,-2.4614,-2.4715,-2.474,-2.4823,-2.4846,-2.4866,-2.4882,-2.4857,-2.4959,-2.4968,-2.4977,-2.5009,-2.5021,-2.4872,-2.4872,-2.4872,-2.4871,0,-2.4427,-2.448,-2.4523,-2.4577,-2.4611,-2.4668,-2.4685,-2.4718,-2.4718,-2.4733,-2.4803,-2.4833,-2.4884,-2.4904,-2.4904,-2.4986,-2.4974,-2.4957,-2.4922,-2.4992,-2.5022,-2.5034,-2.4876,-2.4875,-2.4874,-2.4874,0,0,-2.453,-2.4588,-2.4604,-2.4628,-2.4675,-2.4715,-2.4772,-2.4822,-2.485,-2.4888,-2.4935,-2.5003,-2.4988,-2.5016,-2.5019,-2.5057,-2.5129,-2.5035,-2.5036,-2.5051,-2.522,-2.5233,-2.5247,-2.5123,-2.5125,-2.5127,-2.5217,0,-2.4617,-2.4718,-2.4728,-2.4818,-2.4866,-2.4859,-2.4908,-2.4941,-2.4957,-2.4999,-2.5016,-2.5064,-2.504,-2.5057,-2.5094,-2.5113,-2.5163,-2.5106,-2.5166,-2.5168,-2.5156,-2.5263,-2.5276,-2.5359,-2.5229,-2.5231,-2.5232,0,-2.4733,-2.4775,-2.4871,-2.491,-2.4931,-2.4975,-2.5022,-2.5063,-2.51,-2.5109,-2.5141,-2.5139,-2.5196,-2.516,-2.5238,-2.5199,-2.5224,-2.5237,-2.524,-2.5245,-2.5204,-2.527,-2.5386,-2.5398,-2.5251,-2.5249,-2.5248,0,-2.4797,-2.4878,-2.4945,-2.4967,-2.5015,-2.5046,-2.5067,-2.5102,-2.5132,-2.5172,-2.5192,-2.5238,-2.5263,-2.5299,-2.5309,-2.5282,-2.5387,-2.5351,-2.5395,-2.5394,-2.5416,-2.5415,-2.5537,-2.5434,-2.5433,-2.5433,-2.5433,0,-2.4893,-2.4952,-2.4975,-2.5016,-2.5081,-2.5091,-2.5155,-2.5174,-2.5206,-2.525,-2.5246,-2.5287,-2.5299,-2.5342,-2.535,-2.5413,-2.5425,-2.5433,-2.5434,-2.5433,-2.5432,-2.5449,-2.5443,-2.5437,-2.5436,-2.5435,-2.5435,0,-2.4976,-2.4994,-2.5067,-2.5107,-2.5118,-2.5164,-2.5198,-2.5237,-2.5252,-2.5308,-2.5322,-2.5345,-2.5396,-2.541,-2.547,-2.5476,-2.555,-2.5546,-2.5538,-2.5538,-2.558,-2.5576,-2.5717,-2.5736,-2.5621,-2.5622,-2.5623,0,-2.5036,-2.5081,-2.5126,-2.5156,-2.5179,-2.5227,-2.5258,-2.5269,-2.5301,-2.5347,-2.538,-2.543,-2.5471,-2.5552,-2.5574,-2.562,-2.5617,-2.5663,-2.5623,-2.5621,-2.5617,-2.5614,-2.5618,-2.567,-2.5672,-2.5673,-2.5673,0,-2.514,-2.5147,-2.5192,-2.524,-2.5277,-2.5316,-2.5352,-2.5376,-2.5393,-2.5429,-2.5481,-2.5513,-2.5575,-2.5625,-2.5671,-2.5692,-2.5685,-2.5686,-2.5698,-2.5697,-2.569,-2.5694,-2.5558,-2.5682,-2.5681,-2.5681,-2.568,-2.568,-2.5213,-2.5252,-2.5291,-2.5341,-2.537,-2.5404,-2.5443,-2.5464,-2.5508,-2.556,-2.5564,-2.562,-2.5656,-2.5718,-2.5741,-2.5785,-2.5771,-2.5789,-2.5793,-2.5798,-2.5801,-2.5684,-2.5793,-2.5793,-2.5793,-2.5793,-2.5792,0,-2.5317,-2.5341,-2.5387,-2.5439,-2.5478,-2.547,-2.551,-2.5543,-2.5593,-2.5628,-2.5668,-2.5728,-2.5776,-2.5802,-2.585,-2.5879,-2.5877,-2.5891,-2.5889,-2.5894,-2.5811,-2.5795,-2.5892,-2.5892,-2.5892,-2.5892,-2.5892,-2.5892,-2.5375,-2.5441,-2.5453,-2.5533,-2.5557,-2.5613,-2.5637,-2.5668,-2.5695,-2.5763,-2.5803,-2.582,-2.5851,-2.5901,-2.5944,-2.595,-2.5968,-2.5983,-2.5988,-2.591,-2.5899,-2.589,-2.5875,-2.5987,-2.5987,-2.6067,-2.6067,-2.6068]}]]